Weather History for Pian Rosa, Italy

Change the Weather History Date:

Wednesday, October 3, 2012

  Actual Average Record
Temperature  
Mean Temperature 28 °F -  
Max Temperature 32 °F 28 °F 39 °F (2007)
Min Temperature 24 °F 21 °F 3 °F (2008)
Degree Days  
Heating Degree Days 37    
Moisture  
Dew Point 15 °F    
Average Humidity 59    
Maximum Humidity 86    
Minimum Humidity 20    
Precipitation  
Precipitation 0.00 in - - ()
Sea Level Pressure  
Sea Level Pressure 30.30 in    
Wind  
Wind Speed 7 mph ()    
Max Wind Speed 12 mph    
Max Gust Speed -    
Visibility 7.1 miles    
Events Fog    
Averages and records for this station are not official NWS values.
T = Trace of Precipitation, MM = Missing Value Source: Averaged Metar Reports

Daily Weather History Graph

Daily Weather History Graph

Search for Another Location

Airport:

Trip Planner

Search our weather history database for the weather conditions in past years. The results will help you decide how hot, cold, wet, or windy it might be!

Date:

Astronomy

Oct. 03, 2012 Rise Set
Actual Time 7:30 AM CEST 7:04 PM CEST
Civil Twilight 7:00 AM CEST 7:34 PM CEST
Nautical Twilight 6:26 AM CEST 8:09 PM CEST
Astronomical Twilight 5:50 AM CEST 8:44 PM CEST
Moon 8:33 PM CEST (10/3) 10:51 AM CEST (10/3)
Length of Visible Light 12h 34m
Length of Day
11h 34m
Waning Gibbous, 90% of the Moon is Illuminated
Oct 3
Waning Gibbous
Oct 8
Last Quarter
Oct 15
New
Oct 22
First Quarter
Oct 29
Full

Hourly Weather History & Observations

Time (CEST) Temp. Windchill Dew Point Humidity Pressure Visibility Wind Dir Wind Speed Gust Speed Precip Events Conditions
12:55 AM 26.6 °F 16.8 °F 15.8 °F 64% 30.33 in - SSW 10.4 mph - N/A   Clear
1:55 AM 26.6 °F 16.8 °F 8.6 °F 47% 30.33 in - South 10.4 mph - N/A   Clear
2:00 AM 27 °F - 8 °F 30%  in 12 mi South 10.4 mph - -  
2:55 AM 26.6 °F 16.8 °F -0.4 °F 31% 30.33 in - South 10.4 mph - N/A   Clear
3:55 AM 24.8 °F 14.0 °F -2.2 °F 31% 30.30 in - South 11.5 mph - N/A   Clear
4:55 AM 26.6 °F 17.5 °F 1.4 °F 34% 30.30 in - SSW 9.2 mph - N/A   Clear
5:00 AM 26 °F - 1 °F 20%  in 12 mi SSW 9.2 mph - -   Partly Cloudy
6:55 AM 26.6 °F 17.5 °F 5.0 °F 40% 30.27 in - SW 9.2 mph - N/A   Clear
7:55 AM 26.6 °F 22.6 °F 8.6 °F 47% 30.27 in - Variable 3.5 mph - N/A   Clear
8:00 AM 27 °F - 9 °F 31%  in 19 mi 3.5 mph - -   Clear
8:55 AM 28.4 °F - 8.6 °F 43% 30.27 in - Variable 2.3 mph - N/A   Clear
9:55 AM 30.2 °F 25.4 °F 12.2 °F 47% 30.30 in - SSW 4.6 mph - N/A   Clear
10:55 AM 30.2 °F 24.3 °F 14.0 °F 51% 30.30 in 6.2 mi SSW 5.8 mph - N/A   Unknown
11:00 AM 30 °F - 15 °F 39%  in 47 mi SSW 5.8 mph - -  
11:55 AM 30.2 °F 23.4 °F 14.0 °F 51% 30.30 in - SSW 6.9 mph - N/A   Clear
12:55 PM 30.2 °F 26.7 °F 23.0 °F 75% 30.30 in 6.2 mi Variable 3.5 mph - N/A   Scattered Clouds
1:55 PM 30.2 °F 21.9 °F 21.2 °F 69% 30.30 in 6.2 mi South 9.2 mph - N/A   Scattered Clouds
2:00 PM 31 °F - 20 °F 53%  in 31 mi South 9.2 mph - -   Partly Cloudy
3:55 PM 32.0 °F 26.4 °F 24.8 °F 75% 30.30 in 6.2 mi SSW 5.8 mph - N/A   Scattered Clouds
4:55 PM 32.0 °F 27.5 °F 24.8 °F 75% 30.30 in 6.2 mi South 4.6 mph - N/A   Scattered Clouds
5:00 PM 32 °F - 24 °F 63%  in 7 mi South 4.6 mph - -   Partly Cloudy
5:55 PM 30.2 °F 21.9 °F 24.8 °F 80% 30.30 in 6.2 mi South 9.2 mph - N/A   Scattered Clouds
6:55 PM 28.4 °F 21.2 °F 24.8 °F 86% 30.30 in 6.2 mi SSW 6.9 mph - N/A   Scattered Clouds
7:55 PM 28.4 °F 21.2 °F 24.8 °F 86% 30.30 in 0.6 mi South 6.9 mph - N/A   Unknown
8:00 PM 28 °F - 24 °F 79%  in 1 mi South 6.9 mph - - Fog Heavy Fog
8:55 PM 26.6 °F 20.0 °F 23.0 °F 86% 30.30 in 6.2 mi SSW 5.8 mph - N/A   Partly Cloudy
9:55 PM 26.6 °F 22.6 °F 21.2 °F 80% 30.30 in - Variable 3.5 mph - N/A   Clear
10:55 PM 24.8 °F 19.1 °F 21.2 °F 86% 30.30 in - SSW 4.6 mph - N/A   Clear
11:00 PM 25 °F - 20 °F 75%  in 6 mi SSW 4.6 mph - -   Clear
11:55 PM 24.8 °F 16.9 °F 21.2 °F 86% 30.30 in 6.2 mi SSW 6.9 mph - N/A   Partly Cloudy